Вернуться в каталог

COSMOS 1348 DEB

LostHEO
NORAD 32778·DEBRIS·🇷🇺 Russia

Запущен Apr 7, 1982 с Plesetsk Cosmodrome

Loading…

Ближайшие Пролёты (ближайшие 24 часа)

TLE

УстаревшееSource: Space-Track

Эпоха: May 7, 2010, 04:45 UTC

1 32778U 82029M   10127.19836214  .00000161  00000-0  10000-3 0  9995
2 32778  71.1942  30.7043 5163910 156.1950 240.4625  1.96010894 22074

Отслеживайте COSMOS 1348 DEB в реальном времени с AllMySat

Download on the App Store